Gary, IN

9:22 PM CDT on July 27, 2017 (GMT -0500)
Gary / Chicago

Weather History for KGYY - October, 2013

Change the Weather History Date:

Sunday, October 6, 2013

  Actual Average Record
Temperature  
Mean Temperature 58 °F -  
Max Temperature 69 °F 62 °F 91 °F (2007)
Min Temperature 47 °F 45 °F 30 °F (1952)
Degree Days  
Heating Degree Days 7    
Growing Degree Days 8 (Base 50)    
Moisture  
Dew Point 49 °F    
Average Humidity 75    
Maximum Humidity 92    
Minimum Humidity 42    
Precipitation  
Precipitation 0.02 in - - ()
Sea Level Pressure  
Sea Level Pressure 29.77 in    
Wind  
Wind Speed 7 mph (WSW)    
Max Wind Speed 15 mph    
Max Gust Speed 23 mph    
Visibility 12 miles    
Events Rain    
Averages and records for this station are not official NWS values.
T = Trace of Precipitation, MM = Missing Value Source: NWS Daily Summary

Daily Weather History Graph

Daily Weather History Graph

Search for Another Location

Airport or City:

Trip Planner

Search our weather history database for the weather conditions in past years. The results will help you decide how hot, cold, wet, or windy it might be!

Date:

Astronomy

Oct. 06, 2013 Rise Set
Actual Time 6:52 AM CDT 6:22 PM CDT
Civil Twilight 6:24 AM CDT 6:50 PM CDT
Nautical Twilight 5:52 AM CDT 7:22 PM CDT
Astronomical Twilight 5:19 AM CDT 7:54 PM CDT
Moon 8:37 AM CDT (10/6) 7:19 PM CDT (10/6)
Length of Visible Light 12h 25m
Length of Day
11h 30m
Waxing Crescent, 3% of the Moon is Illuminated
Oct 6
Waxing Crescent
Oct 11
First Quarter
Oct 18
Full
Oct 26
Last Quarter
Nov 3
New

Hourly Weather History & Observations

Time (CDT) Temp. Dew Point Humidity Pressure Visibility Wind Dir Wind Speed Gust Speed Precip Events Conditions
12:15 AM 69.6 °F 67.1 °F 92% 29.79 in 7.0 mi South 4.6 mph - N/A   Overcast
12:35 AM 69.4 °F 67.1 °F 92% 29.78 in 7.0 mi South 6.9 mph - N/A Rain Light Rain
12:55 AM 69.3 °F 66.6 °F 91% 29.77 in 7.0 mi South 6.9 mph - N/A   Overcast
1:15 AM 69.1 °F 66.4 °F 91% 29.76 in 7.0 mi South 3.5 mph - N/A   Overcast
1:35 AM 68.9 °F 66.2 °F 91% 29.77 in 10.0 mi South 3.5 mph - N/A   Overcast
1:55 AM 67.5 °F 63.9 °F 88% 29.77 in 10.0 mi WSW 6.9 mph - N/A Rain Light Rain
2:15 AM 65.8 °F 62.2 °F 88% 29.77 in 7.0 mi WSW 10.4 mph 17.3 mph N/A   Drizzle
2:35 AM 64.0 °F 60.3 °F 87% 29.77 in 7.0 mi West 11.5 mph - 0.01 in   Light Drizzle
2:55 AM 63.7 °F 60.1 °F 88% 29.77 in 10.0 mi WSW 10.4 mph - 0.01 in Rain Light Rain
3:15 AM 61.7 °F 58.1 °F 88% 29.77 in 10.0 mi WSW 11.5 mph - N/A   Overcast
3:35 AM 59.4 °F 55.8 °F 88% 29.79 in 4.0 mi West 15.0 mph 19.6 mph N/A   Heavy Drizzle
3:55 AM 57.7 °F 53.6 °F 86% 29.79 in 7.0 mi West 9.2 mph - N/A   Light Drizzle
4:15 AM 57.7 °F 53.6 °F 86% 29.80 in 7.0 mi WSW 8.1 mph - 0.01 in   Light Drizzle
4:35 AM 57.4 °F 53.2 °F 86% 29.80 in 5.0 mi WSW 5.8 mph - 0.01 in Rain Rain
4:45 AM 57.2 °F 53.6 °F 88% 29.79 in 10.0 mi West 6.9 mph - N/A Rain Light Rain
6:45 AM 55.4 °F 51.8 °F 88% 29.79 in 10.0 mi WSW 6.9 mph - N/A   Overcast
7:45 AM 53.6 °F 50.0 °F 88% 29.78 in 10.0 mi Calm Calm - N/A   Overcast
9:45 AM 55.4 °F 51.8 °F 88% 29.78 in 15.0 mi Calm Calm - N/A   Overcast
10:45 AM 59.0 °F 48.2 °F 67% 29.78 in 20.0 mi SW 6.9 mph - N/A   Mostly Cloudy
11:45 AM 60.8 °F 44.6 °F 55% 29.77 in 20.0 mi SW 6.9 mph - N/A   Scattered Clouds
12:45 PM 62.6 °F 42.8 °F 48% 29.74 in 20.0 mi WSW 13.8 mph - N/A   Mostly Cloudy
1:45 PM 62.6 °F 41.0 °F 45% 29.72 in 20.0 mi WSW 11.5 mph 23.0 mph N/A   Mostly Cloudy
2:45 PM 62.6 °F 41.0 °F 45% 29.71 in 20.0 mi WSW 11.5 mph 23.0 mph N/A   Mostly Cloudy
3:45 PM 62.6 °F 39.2 °F 42% 29.70 in 20.0 mi WSW 11.5 mph 23.0 mph N/A   Mostly Cloudy
4:45 PM 60.8 °F 39.2 °F 45% 29.73 in 20.0 mi WSW 11.5 mph 23.0 mph N/A   Overcast
5:45 PM 57.2 °F 39.2 °F 51% 29.74 in 15.0 mi WSW 11.5 mph 23.0 mph N/A   Mostly Cloudy
6:45 PM 53.6 °F 39.2 °F 58% 29.77 in 15.0 mi West 11.5 mph 23.0 mph N/A   Mostly Cloudy
7:45 PM 51.8 °F 39.2 °F 62% 29.79 in 15.0 mi WSW 11.5 mph - N/A   Mostly Cloudy
8:47 PM 50.0 °F 39.2 °F 66% 29.79 in 15.0 mi WSW 11.5 mph - N/A   Mostly Cloudy
9:15 PM 50.0 °F 39.7 °F 68% 29.79 in 10.0 mi WSW 4.6 mph - N/A   Clear
9:35 PM 50.0 °F 39.4 °F 67% 29.79 in 10.0 mi WSW 4.6 mph - N/A   Clear
9:55 PM 48.9 °F 39.4 °F 70% 29.79 in 10.0 mi Calm Calm - N/A   Clear
10:15 PM 48.2 °F 39.4 °F 72% 29.79 in 10.0 mi Calm Calm - N/A   Clear
10:35 PM 47.7 °F 39.7 °F 74% 29.79 in 10.0 mi Calm Calm - N/A   Scattered Clouds
10:55 PM 47.3 °F 40.8 °F 78% 29.80 in 10.0 mi Calm Calm - N/A   Scattered Clouds
11:15 PM 47.7 °F 41.2 °F 78% 29.79 in 10.0 mi Calm Calm - N/A   Mostly Cloudy
11:35 PM 48.2 °F 41.4 °F 77% 29.79 in 10.0 mi Calm Calm - N/A   Overcast
11:55 PM 48.7 °F 41.4 °F 76% 29.79 in 10.0 mi WSW 3.5 mph - N/A   Overcast